Location: Newark
(4.9167°N, 114.9167°E)
Time: 12:31:57
(UTC+00:00)

Hubble Space Telescope - Visible Passes

Search period start: 17 October 2019 00:00
Search period end: 27 October 2019 00:00
Orbit: 536 x 540 km, 28.5° (Epoch: 16 October)

Date Brightness Start Highest point End Pass type
(mag) Time Alt. Az. Time Alt. Az. Time Alt. Az.
17 Oct 0.7 10:39:08 10° NW 10:43:15 73° NNE 10:47:13 11° ESE visible
17 Oct 3.7 12:21:33 10° WSW 12:22:36 14° WSW 12:22:36 14° WSW visible
18 Oct 0.9 10:28:33 10° WNW 10:32:41 78° SSW 10:36:49 10° ESE visible
18 Oct 3.6 12:11:56 10° WSW 12:13:28 13° SW 12:13:28 13° SW visible
20 Oct 3.6 20:25:09 10° S 20:26:30 11° SSE 20:27:52 10° SE visible
21 Oct 3.2 20:14:58 15° SSE 20:15:58 16° SSE 20:18:31 10° ESE visible
22 Oct 3.0 20:05:52 21° SE 20:05:52 21° SE 20:08:38 10° E visible
23 Oct 3.2 19:56:44 21° ESE 19:56:44 21° ESE 19:58:30 10° E visible
23 Oct 1.3 21:32:07 10° W 21:36:00 40° NNW 21:39:52 10° NE visible
24 Oct 3.7 19:47:33 14° E 19:47:33 14° E 19:48:13 10° ENE visible
24 Oct 1.8 21:22:56 16° W 21:25:27 29° NNW 21:29:03 10° NNE visible
25 Oct 2.2 21:13:39 19° NW 21:14:56 22° NNW 21:18:08 10° NNE visible
26 Oct 2.5 21:04:18 16° NNW 21:04:26 16° NNW 21:07:04 10° NNE visible
